Location: Berua Church
(35.0423°N, 88.5987°W)
Time: 13:40:15
(UTC+00:00)

CZ-4 R/B - Pass Details

Date: 08 December 2019
Orbit: 533 x 598 km, 97.7° (Epoch: 24 January)

Event Time Altitude Azimuth Distance (km) Brightness Sun altitude
Rises 23:26:31 0° 133° (SE) 2,725 4.6 -9.0°
Reaches altitude 10° 23:29:07 10° 115° (ESE) 1,823 3.6 -9.5°
Maximum altitude 23:31:55 19° 70° (ENE) 1,341 2.6 -10.1°
Drops below altitude 10° 23:34:41 10° 25° (NNE) 1,810 3.5 -10.6°
Sets 23:37:15 0° 7° (N) 2,698 4.6 -11.1°
